Weather History for Jacksonville Craig, FL

Change the Weather History Date:

Tuesday, October 25, 2011

  Actual Average Record
Temperature  
Mean Temperature 64 °F -  
Max Temperature 78 °F 76 °F 90 °F (2010)
Min Temperature 51 °F 59 °F 45 °F (2006)
Degree Days  
Heating Degree Days 1    
Growing Degree Days 14 (Base 50)    
Moisture  
Dew Point 56 °F    
Average Humidity 77    
Maximum Humidity 96    
Minimum Humidity 52    
Precipitation  
Precipitation 0.00 in - - ()
Sea Level Pressure  
Sea Level Pressure 30.17 in    
Wind  
Wind Speed 2 mph (NNE)    
Max Wind Speed 10 mph    
Max Gust Speed 17 mph    
Visibility 10 miles    
Events      
Averages and records for this station are not official NWS values.
T = Trace of Precipitation, MM = Missing Value Source: NWS Daily Summary

Daily Weather History Graph

Daily Weather History Graph

Search for Another Location

Airport:

Trip Planner

Search our weather history database for the weather conditions in past years. The results will help you decide how hot, cold, wet, or windy it might be!

Date:

Astronomy

Oct. 25, 2011 Rise Set
Actual Time 7:34 AM EDT 6:44 PM EDT
Civil Twilight 7:10 AM EDT 7:09 PM EDT
Nautical Twilight 6:42 AM EDT 7:37 PM EDT
Astronomical Twilight 6:14 AM EDT 8:05 PM EDT
Moon 6:08 AM EDT (10/25) 5:45 PM EDT (10/25)
Length of Visible Light 11h 58m
Length of Day
11h 10m
Waning Crescent, 2% of the Moon is Illuminated
Oct 25
Waning Crescent
Oct 26
New
Nov 2
First Quarter
Nov 10
Full
Nov 18
Last Quarter

Hourly Weather History & Observations

Time (EDT) Temp. Dew Point Humidity Pressure Visibility Wind Dir Wind Speed Gust Speed Precip Events Conditions
12:53 AM 55.9 °F 52.0 °F 87% 30.15 in 10.0 mi Calm Calm - N/A   Clear
1:53 AM 54.0 °F 50.0 °F 86% 30.15 in 10.0 mi Calm Calm - N/A   Clear
2:53 AM 53.1 °F 52.0 °F 96% 30.14 in 8.0 mi Calm Calm - N/A   Clear
3:53 AM 54.0 °F 48.9 °F 83% 30.13 in 9.0 mi Calm Calm - N/A   Clear
4:53 AM 53.1 °F 48.9 °F 86% 30.14 in 10.0 mi Calm Calm - N/A   Clear
5:53 AM 52.0 °F 48.0 °F 86% 30.15 in 10.0 mi Calm Calm - N/A   Clear
6:53 AM 51.1 °F 48.0 °F 89% 30.16 in 8.0 mi Calm Calm - N/A   Clear
7:53 AM 51.1 °F 46.9 °F 86% 30.18 in 10.0 mi Calm Calm - N/A   Clear
8:53 AM 60.1 °F 55.9 °F 86% 30.19 in 9.0 mi Calm Calm - N/A   Clear
9:53 AM 68.0 °F 57.9 °F 70% 30.22 in 10.0 mi North 4.6 mph - N/A   Clear
11:53 AM 75.9 °F 59.0 °F 56% 30.23 in 10.0 mi NE 5.8 mph - N/A   Clear
12:53 PM 75.9 °F 57.9 °F 54% 30.21 in 10.0 mi NE 9.2 mph - N/A   Clear
1:53 PM 77.0 °F 57.9 °F 52% 30.18 in 10.0 mi East 10.4 mph 17.3 mph N/A   Clear
2:53 PM 75.9 °F 57.9 °F 54% 30.17 in 10.0 mi ENE 9.2 mph - N/A   Clear
3:53 PM 77.0 °F 60.1 °F 56% 30.16 in 10.0 mi NNE 10.4 mph - N/A   Clear
5:53 PM 73.0 °F 61.0 °F 66% 30.15 in 10.0 mi NE 8.1 mph - N/A   Clear
6:53 PM 70.0 °F 61.0 °F 73% 30.15 in 10.0 mi NNE 4.6 mph - N/A   Clear
7:53 PM 66.9 °F 61.0 °F 81% 30.15 in 10.0 mi Calm Calm - N/A   Clear
8:53 PM 63.0 °F 60.1 °F 90% 30.16 in 10.0 mi North 4.6 mph - N/A   Clear
9:53 PM 64.9 °F 61.0 °F 87% 30.16 in 10.0 mi North 4.6 mph - N/A   Clear
10:53 PM 64.0 °F 60.1 °F 87% 30.17 in 10.0 mi Calm Calm - N/A   Scattered Clouds
11:53 PM 64.9 °F 61.0 °F 87% 30.16 in 10.0 mi North 4.6 mph - N/A   Partly Cloudy